Flag for Uruguay Weather past 2 weeks in Montevideo, Uruguay

Now
46 °F

Passing clouds.


Feels Like: 44 °F
Forecast: 44 / 56 °F
Wind: 5 mph from Northeast

Location: Carrasco

Current Time: Sep 2, 2015 at 3:40:43 AM

Latest Report: Sep 2, 2015 at 3:00 AM


Visibility: N/A

Pressure: 30.33 "Hg

Humidity: 82%

Dew point: 41 °F

Location of MontevideoLocation

Historic Weather in Montevideo — Graph

°F

Montevideo temperature yesterday

Maximum temperature yesterday: 54 °F (at 11:00 AM)
Minimum temperature yesterday: 46 °F (at 7:00 AM)
Average temperature yesterday: 50 °F

Past Weeks' High & Low Weather Summary

 TemperatureHumidityPressure
High77 °F (Aug 29, 1:00 PM)100% (Aug 25, 7:00 AM)30.45 "Hg (Aug 25, 7:00 AM)
Low45 °F (Aug 25, 3:00 AM)33% (Aug 28, 3:00 PM)29.68 "Hg (Aug 22, 3:00 PM)
Average57 °F74%30.02 "Hg
* Reported Aug 18 2:00 AM — Sep 2 2:00 AM, Montevideo, Weather by CustomWeather, © 2015

Note: Actual official high and low records may vary slightly from our data, if they occured in-between our weather recording intervals... More about our weather records

Advertising

Montevideo weather history for previous 24 hours

 ConditionsComfort  
Time TempWeatherWind HumidityBarometerVisibility
2:00 AM
Wed, Sep 2
46 °FPassing clouds.6 mph76%30.33 "HgN/A
1:00 AM45 °FPassing clouds.6 mph81%30.36 "HgN/A
12:00 AM48 °FPassing clouds.5 mph71%30.36 "HgN/A
11:00 PM
Tue, Sep 1
48 °FPassing clouds.5 mph71%30.36 "HgN/A
10:00 PM48 °FPassing clouds.7 mph71%30.39 "HgN/A
9:00 PM48 °FClear.8 mph66%30.39 "Hg10 mi
8:00 PM48 °FClear.7 mph62%30.39 "Hg10 mi
6:00 PM50 °FClear.13 mph54%30.39 "Hg10 mi
5:00 PM54 °FSunny.15 mph51%30.39 "Hg10 mi
4:00 PM54 °FSunny.14 mph58%30.39 "Hg10 mi
3:00 PM54 °FSunny.17 mph54%30.42 "Hg10 mi
2:00 PM52 °FSunny.17 mph62%30.42 "Hg10 mi
1:00 PM54 °FSunny.17 mph51%30.45 "Hg10 mi
12:00 PM52 °FSunny.17 mph58%30.45 "Hg10 mi
11:00 AM54 °FSunny.17 mph47%30.45 "Hg10 mi
10:00 AM52 °FSunny.17 mph47%30.45 "Hg10 mi
9:00 AM50 °FSunny.17 mph47%30.45 "Hg10 mi
8:00 AM48 °FSunny.12 mph54%30.42 "Hg10 mi
7:00 AM46 °FPassing clouds.12 mph66%30.42 "HgN/A
6:00 AM48 °FClear.17 mph54%30.39 "Hg10 mi
5:00 AM48 °FPassing clouds.15 mph58%30.39 "HgN/A
4:00 AM48 °FPassing clouds.23 mph58%30.36 "HgN/A
3:00 AM48 °FPassing clouds.18 mph50%30.36 "HgN/A
Weather by CustomWeather, © 2015

See weather overviewHow to use our weather pages